Terminal Aerodrome Forecast
Issued by NWS

Home | Current Version | Previous Version | Text Only | Print | Product List | Glossary On
Versions: 1 2 3 4 5 6 7 8 9 10 11 12 13 14 15 16 17 18 19 20 21 22 23 24 25 26
956
FTUS43 KDLH 082349
TAFHYR
TAF
KHYR 082349Z 0900/0924 33008G15KT 1SM -SN OVC020
      TEMPO 0900/0904 3SM -SN OVC025
     FM090400 35008G16KT 5SM -SN BKN025 OVC040
     FM091000 35006KT 5SM -SN BKN025
     FM091600 35007KT P6SM BKN030=

USA.gov is the U.S. government's official web portal to all federal, state and local government web resources and services.